Regional Weather Roundup
Issued by NWS

Home | Current Version | Previous Version | Text Only | Print | Product List | Glossary On
Versions: 1 2 3 4 5 6 7 8 9 10 11 12 13 14 15 16 17 18 19 20 21 22 23 24 25 26 27 28
000
ASCA42 TJSJ 080410
RWRPR
PUERTO RICO/U.S. VIRGIN ISLANDS HOURLY WEATHER ROUNDUP
NATIONAL WEATHER SERVICE SAN JUAN PR
1200 AM AST THU DEC 08 2016

PRZ001>002-007>008-010-080500-
PUERTO RICO

CITY           SKY/WX    TMP DP  RH WIND       PRES   REMARKS
SAN JUAN LMM   PTCLDY    81  72  74 E10       30.05F
PONCE          CLEAR     75  66  73 CALM      30.06F
AGUADILLA      PTCLDY    73  70  88 E6        30.06F
CEIBA          PTCLDY    79  72  78 NE10      30.06F
$$

VIZ001>002-080500-
U.S. VIRGIN ISLANDS

CITY           SKY/WX    TMP DP  RH WIND       PRES   REMARKS
CHARLOTTE AMA  CLEAR     79  73  83 NE15      30.03F
CHRISTIANSTED  LGT RAIN  79  73  83 NE14      30.03F
$$

HOURLY WEATHER ROUNDUP FOR THE NEWS MEDIA

CITY           SKY/WX    TMP DP  RH WIND       PRES   REMARKS
ORLANDO        CLEAR     65  59  81 NW5       30.11S
NEW YORK       MOCLDY    44  33  65 SW5       30.04S
NEWARK         MOCLDY    38  33  82 SW6       30.03S WCI  33
CHICAGO        CLOUDY    23  14  68 W18G28    30.14S WCI   9
HARTFORD       CLOUDY    37  34  89 CALM      29.99F FOG
BOSTON         MOCLDY    38  35  89 SW8       29.99F WCI  32
DALLAS         CLOUDY    46  39  76 NE14G24   30.31R
PHILADELPHIA   CLOUDY    38  34  85 S5        30.06F WCI  34
LOS ANGELES    PTCLDY    58  51  78 N3        30.14R
WASHINGTON DC  PTCLDY    32  29  88 S3        30.08S



USA.gov is the U.S. government's official web portal to all federal, state and local government web resources and services.